Location: Newark
(31.5350°N, 35.0986°E)
Time: 00:33:42
(UTC+00:00)

A-11 Canister half - Pass Details

Date: 22 October 2019
Orbit: 1514 x 1686 km, 47.2° (Epoch: 16 November)

Event Time Altitude Azimuth Distance (km) Brightness Sun altitude
Exits shadow 01:13:50 33° 333° (NNW) 2,485 9.9 -33.3°
Maximum altitude 01:15:10 34° 348° (NNW) 2,434 9.9 -33.1°
Drops below altitude 10° 01:23:38 10° 50° (NE) 3,764 11.7 -31.3°
Sets 01:27:08 0° 60° (ENE) 4,724 12.5 -30.5°
